Weather in Zhangye

China     38°55′59″N   100°27′17″E
temp.,
°C
wind,
m/s
gust,
m/s
humid.,
%
clouds,
%
prec.,
mm/h
press.,
hPa
HPBL,
m
14 may, fri
fri1423:00+17nnw111227100 0.0 10061669
02:00+13nw6842100 0.0 10101253
05:00+9nw91057100 0.2 1013886
08:00+7nw7880100 3.1 1015965
11:00+8nw476192 0.8 1016810
14:00+15wnw454097 0.9 10111960
17:00+15nw4435100 0.0 10101798
20:00+13wsw5446100 0.0 1014556
15 may, sat
sat1523:00+12s3447100 0.0 1016373
02:00+11ese5650100 0.0 1015215
05:00+11se4546100 0.0 101499
08:00+13se3439100 0.0 1016242
11:00+18n0122100 0.0 10152057
14:00+20n221584 0.0 10123035
17:00+21n2213100 0.0 10103076
20:00+20nne5512100 0.0 1012875
16 may, sun
sun1623:00+18nne1215100 0.0 101415
02:00+15s111999 0.0 101311
05:00+15se2218100 0.0 101312
08:00+17sse231993 0.0 1015184
11:00+21se331468 0.0 10132463
14:00+23sse2212100 0.0 10093266
17:00+25se011170 0.0 10073589
20:00+22s5617100 0.0 10081292
17 may, mon
mon1723:00+19sse342898 0.0 1010141
02:00+17se5834100 0.0 1009195
05:00+16sse3436100 0.0 101047
08:00+18se343150 0.0 1010311
11:00+23sse1218100 0.0 10092153
14:00+25nnw2211100 0.0 10063296
17:00+26nne659100 0.0 10044179
20:00+23ne6710100 0.0 1006382
18 may, tue
tue1823:00+19s3514100 0.0 100964
02:00+18s442196 0.0 100837
05:00+17sse4428100 0.0 100847
08:00+19nw5924100 0.0 1011860
11:00+18nw91126100 0.0 10121106
14:00+20sw5425100 0.0 10101615
17:00+21sw1319100 0.0 10082536
20:00+19sse22221 0.0 100722